| time (UTC) | temp F | wind direction | speed knots | gust knots | rain 1hr in | rain 24hr in | rain mn in | humidity % | barometer mb |
| 20260507135537 | 56 | 71 | 3.5 | 4.3 | 0.00 | 0.00 | 0.00 | 90 | 1014.6 |
| 20260507134537 | 56 | 50 | 2.6 | 3.5 | 0.00 | 0.00 | 0.00 | 90 | 1014.6 |
| 20260507133538 | 56 | 62 | 2.6 | 3.5 | 0.00 | 0.00 | 0.00 | 90 | 1014.4 |
| 20260507132538 | 56 | 61 | 1.7 | 3.5 | 0.00 | 0.00 | 0.00 | 90 | 1014.2 |
| 20260507131538 | 56 | 58 | 0.9 | 3.5 | 0.00 | 0.00 | 0.00 | 90 | 1014.1 |
| 20260507130537 | 56 | 55 | 1.7 | 3.5 | 0.00 | 0.00 | 0.00 | 90 | 1014.1 |
| 20260507125537 | 56 | 59 | 1.7 | 4.3 | 0.00 | 0.00 | 0.00 | 90 | 1014.0 |
| 20260507124538 | 56 | 54 | 1.7 | 4.3 | 0.00 | 0.00 | 0.00 | 89 | 1014.0 |
| 20260507123537 | 56 | 77 | 3.5 | 4.3 | 0.00 | 0.00 | 0.00 | 89 | 1013.9 |
| 20260507122538 | 56 | 69 | 1.7 | 4.3 | 0.00 | 0.00 | 0.00 | 89 | 1013.9 |
| 20260507121537 | 56 | 78 | 2.6 | 4.3 | 0.00 | 0.00 | 0.00 | 89 | 1014.0 |
| 20260507120538 | 56 | 78 | 3.5 | 4.3 | 0.00 | 0.00 | 0.00 | 92 | 1014.0 |
| 20260507115537 | 56 | 64 | 1.7 | 5.2 | 0.00 | 0.00 | 0.00 | 89 | 1013.9 |
| 20260507112537 | 56 | 82 | 3.5 | 4.3 | 0.00 | 0.00 | 0.00 | 89 | 1013.8 |
| 20260507111538 | 57 | 103 | 2.6 | 4.3 | 0.00 | 0.00 | 0.00 | 89 | 1013.9 |
| 20260507110538 | 57 | 44 | 1.7 | 3.5 | 0.00 | 0.00 | 0.00 | 89 | 1013.9 |
| 20260507105538 | 57 | 65 | 2.6 | 4.3 | 0.00 | 0.00 | 0.00 | 89 | 1014.1 |
| 20260507104538 | 57 | 82 | 2.6 | 4.3 | 0.00 | 0.00 | 0.00 | 89 | 1014.0 |
| 20260507103538 | 57 | 35 | 2.6 | 4.3 | 0.00 | 0.00 | 0.00 | 89 | 1014.2 |
| 20260507102538 | 57 | 47 | 1.7 | 4.3 | 0.00 | 0.00 | 0.00 | 89 | 1014.2 |
| 20260507101537 | 58 | 58 | 1.7 | 4.3 | 0.00 | 0.00 | 0.00 | 89 | 1014.2 |
| 20260507100538 | 58 | 81 | 2.6 | 2.6 | 0.00 | 0.00 | 0.00 | 88 | 1014.3 |
| 20260507095538 | 58 | 95 | 2.6 | 5.2 | 0.00 | 0.00 | 0.00 | 88 | 1014.3 |
| 20260507094538 | 58 | 71 | 0.9 | 5.2 | 0.00 | 0.00 | 0.00 | 88 | 1014.3 |
| 20260507093538 | 58 | 68 | 3.5 | 4.3 | 0.00 | 0.00 | 0.00 | 88 | 1014.4 |
| 20260507092538 | 58 | 74 | 0.9 | 3.5 | 0.00 | 0.00 | 0.00 | 88 | 1014.6 |
| 20260507090538 | 58 | 67 | 1.7 | 2.6 | 0.00 | 0.00 | 0.00 | 88 | 1014.7 |
| 20260507085537 | 58 | 67 | 0.0 | 3.5 | 0.00 | 0.00 | 0.00 | 88 | 1014.8 |
| 20260507084538 | 58 | 46 | 0.0 | 3.5 | 0.00 | 0.00 | 0.00 | 87 | 1014.9 |
| 20260507082538 | 58 | 36 | 2.6 | 3.5 | 0.00 | 0.00 | 0.00 | 87 | 1015.1 |
| 20260507080538 | 59 | 17 | 2.6 | 3.5 | 0.00 | 0.00 | 0.00 | 86 | 1015.2 |
| 20260507075537 | 59 | 5 | 1.7 | 3.5 | 0.00 | 0.00 | 0.00 | 86 | 1015.2 |
| 20260507074538 | 59 | 16 | 0.9 | 2.6 | 0.00 | 0.00 | 0.00 | 86 | 1015.2 |
| 20260507073538 | 60 | 65 | 1.7 | 2.6 | 0.00 | 0.00 | 0.00 | 86 | 1015.3 |
| 20260507071537 | 60 | 31 | 0.9 | 2.6 | 0.00 | 0.00 | 0.00 | 85 | 1015.2 |
| 20260507070538 | 60 | 31 | 1.7 | 2.6 | 0.00 | 0.00 | 0.00 | 85 | 1015.3 |
| 20260507065538 | 61 | 31 | 0.9 | 2.6 | 0.00 | 0.00 | 0.00 | 85 | 1015.4 |
| 20260507064538 | 61 | 31 | 0.9 | 2.6 | 0.00 | 0.00 | 0.00 | 85 | 1015.3 |
| 20260507063538 | 61 | 31 | 1.7 | 2.6 | 0.00 | 0.00 | 0.00 | 84 | 1015.3 |
| 20260507062538 | 62 | 31 | 1.7 | 2.6 | 0.00 | 0.00 | 0.00 | 85 | 1015.4 |
| 20260507061538 | 62 | 326 | 2.6 | 2.6 | 0.00 | 0.00 | 0.00 | 84 | 1015.4 |
| 20260507060538 | 62 | 326 | 1.7 | 1.7 | 0.00 | 0.00 | 0.00 | 84 | 1015.4 |
| 20260507054538 | 63 | 18 | 0.9 | 2.6 | 0.00 | 0.00 | 0.00 | 84 | 1015.4 |
| 20260507053538 | 63 | 26 | 1.7 | 2.6 | 0.00 | 0.00 | 0.00 | 85 | 1015.4 |
| 20260507051538 | 64 | 329 | 4.3 | 8.7 | 0.00 | 0.00 | 0.00 | 85 | 1015.3 |
| 20260507050538 | 64 | 275 | 3.5 | 7.0 | 0.00 | 0.00 | 0.00 | 85 | 1015.3 |
| 20260507045538 | 64 | 308 | 7.8 | 7.8 | 0.00 | 0.00 | 0.00 | 85 | 1015.4 |
| 20260507044538 | 64 | 286 | 2.6 | 7.8 | 0.00 | 0.00 | 0.00 | 85 | 1015.3 |
| 20260507043538 | 64 | 278 | 3.5 | 7.8 | 0.00 | 0.00 | 0.00 | 85 | 1015.2 |
| 20260507042538 | 64 | 306 | 2.6 | 8.7 | 0.00 | 0.00 | 0.00 | 85 | 1015.3 |
| 20260507041538 | 64 | 271 | 7.0 | 8.7 | 0.00 | 0.00 | 0.00 | 85 | 1015.2 |
| 20260507040538 | 64 | 286 | 3.5 | 7.8 | 0.00 | 0.00 | 0.00 | 85 | 1015.2 |
| 20260507033538 | 64 | 287 | 2.6 | 8.7 | 0.00 | 0.00 | 0.00 | 83 | 1014.9 |
| 20260507031538 | 64 | 302 | 5.2 | 8.7 | 0.00 | 0.00 | 0.00 | 84 | 1014.9 |
| 20260507030538 | 64 | 294 | 7.0 | 8.7 | 0.00 | 0.00 | 0.00 | 84 | 1014.9 |
| 20260507025538 | 64 | 290 | 8.7 | 8.7 | 0.00 | 0.00 | 0.00 | 84 | 1014.8 |
| 20260507024538 | 65 | 219 | 2.6 | 7.8 | 0.00 | 0.00 | 0.00 | 83 | 1014.7 |
| 20260507023538 | 65 | 281 | 3.5 | 7.8 | 0.00 | 0.00 | 0.00 | 83 | 1014.7 |
| 20260507021538 | 66 | 336 | 3.5 | 7.0 | 0.00 | 0.00 | 0.00 | 82 | 1014.5 |
| 20260507020538 | 66 | 278 | 7.0 | 7.0 | 0.00 | 0.00 | 0.00 | 82 | 1014.5 |
| 20260507015538 | 66 | 317 | 3.5 | 9.6 | 0.00 | 0.00 | 0.00 | 81 | 1014.4 |
| 20260507014538 | 67 | 286 | 7.0 | 9.6 | 0.00 | 0.00 | 0.00 | 81 | 1014.4 |
| 20260507013538 | 67 | 280 | 7.0 | 8.7 | 0.00 | 0.00 | 0.00 | 81 | 1014.4 |
| 20260507012538 | 67 | 301 | 7.8 | 11.3 | 0.00 | 0.00 | 0.00 | 81 | 1014.4 |
| 20260507005538 | 68 | 298 | 6.1 | 11.3 | 0.00 | 0.00 | 0.00 | 78 | 1014.1 |
| 20260507004538 | 68 | 267 | 7.0 | 11.3 | 0.00 | 0.00 | 0.00 | 76 | 1014.0 |
| 20260507003538 | 69 | 258 | 5.2 | 11.3 | 0.00 | 0.00 | 0.00 | 75 | 1014.1 |
| 20260507002538 | 68 | 268 | 8.7 | 12.2 | 0.00 | 0.00 | 0.00 | 77 | 1014.0 |
| 20260507001538 | 68 | 284 | 9.6 | 12.2 | 0.00 | 0.00 | 0.00 | 78 | 1014.0 |
| 20260507000538 | 68 | 272 | 8.7 | 11.3 | 0.00 | 0.00 | 0.00 | 78 | 1013.9 |
| 20260506234538 | 68 | 290 | 8.7 | 12.2 | 0.00 | 0.00 | 0.00 | 80 | 1013.9 |
| 20260506233538 | 68 | 267 | 10.4 | 12.2 | 0.00 | 0.00 | 0.00 | 79 | 1013.9 |
| 20260506232538 | 68 | 262 | 10.4 | 12.2 | 0.00 | 0.00 | 0.00 | 79 | 1013.9 |
| 20260506231538 | 68 | 286 | 7.8 | 11.3 | 0.00 | 0.00 | 0.00 | 79 | 1014.0 |
| 20260506230538 | 68 | 280 | 5.2 | 10.4 | 0.00 | 0.00 | 0.00 | 79 | 1014.0 |
| 20260506225538 | 68 | 258 | 7.0 | 13.9 | 0.00 | 0.00 | 0.00 | 80 | 1014.2 |
| 20260506224538 | 68 | 316 | 5.2 | 13.0 | 0.00 | 0.00 | 0.00 | 80 | 1014.3 |
| 20260506223538 | 68 | 287 | 8.7 | 13.0 | 0.00 | 0.00 | 0.00 | 79 | 1014.4 |
| 20260506221538 | 68 | 275 | 8.7 | 11.3 | 0.00 | 0.00 | 0.00 | 78 | 1014.6 |
| 20260506220538 | 68 | 273 | 9.6 | 10.4 | 0.00 | 0.00 | 0.00 | 78 | 1014.7 |
| 20260506215538 | 68 | 243 | 10.4 | 13.9 | 0.00 | 0.00 | 0.00 | 78 | 1014.7 |
| 20260506213538 | 68 | 284 | 8.7 | 11.3 | 0.00 | 0.00 | 0.00 | 77 | 1014.9 |
| 20260506212538 | 68 | 313 | 7.8 | 13.0 | 0.00 | 0.00 | 0.00 | 77 | 1015.1 |
| 20260506211538 | 68 | 269 | 8.7 | 13.0 | 0.00 | 0.00 | 0.00 | 78 | 1015.2 |
| 20260506210538 | 68 | 277 | 10.4 | 10.4 | 0.00 | 0.00 | 0.00 | 78 | 1015.2 |
| 20260506205538 | 68 | 275 | 10.4 | 11.3 | 0.00 | 0.00 | 0.00 | 77 | 1015.4 |
| 20260506204538 | 68 | 286 | 8.7 | 11.3 | 0.00 | 0.00 | 0.00 | 77 | 1015.5 |
| 20260506203538 | 68 | 254 | 7.0 | 10.4 | 0.00 | 0.00 | 0.00 | 76 | 1015.4 |
| 20260506202538 | 68 | 279 | 7.0 | 10.4 | 0.00 | 0.00 | 0.00 | 77 | 1015.4 |
| 20260506201538 | 68 | 244 | 8.7 | 10.4 | 0.00 | 0.00 | 0.00 | 78 | 1015.6 |
| 20260506200538 | 68 | 268 | 7.0 | 8.7 | 0.00 | 0.00 | 0.00 | 77 | 1015.7 |
| 20260506195538 | 68 | 263 | 8.7 | 12.2 | 0.00 | 0.00 | 0.00 | 78 | 1015.8 |
| 20260506194538 | 67 | 246 | 7.0 | 12.2 | 0.00 | 0.00 | 0.00 | 79 | 1015.9 |
| 20260506193538 | 67 | 275 | 7.8 | 11.3 | 0.00 | 0.00 | 0.00 | 79 | 1016.0 |
| 20260506192538 | 66 | 270 | 8.7 | 10.4 | 0.00 | 0.00 | 0.00 | 79 | 1016.0 |
| 20260506191538 | 66 | 254 | 8.7 | 9.6 | 0.00 | 0.00 | 0.00 | 78 | 1016.2 |
| 20260506190538 | 67 | 284 | 7.0 | 9.6 | 0.00 | 0.00 | 0.00 | 78 | 1016.3 |
| 20260506185538 | 66 | 275 | 7.8 | 9.6 | 0.00 | 0.00 | 0.00 | 79 | 1016.2 |
| 20260506184538 | 66 | 267 | 7.8 | 8.7 | 0.00 | 0.00 | 0.00 | 77 | 1016.3 |
| 20260506183538 | 66 | 248 | 5.2 | 7.8 | 0.00 | 0.00 | 0.00 | 78 | 1016.5 |
| 20260506181538 | 65 | 238 | 3.5 | 7.8 | 0.00 | 0.00 | 0.00 | 78 | 1016.5 |
| 20260506180538 | 66 | 220 | 2.6 | 7.0 | 0.00 | 0.00 | 0.00 | 79 | 1016.6 |
| 20260506175538 | 65 | 256 | 5.2 | 7.8 | 0.00 | 0.00 | 0.00 | 79 | 1016.7 |
| 20260506174538 | 65 | 254 | 4.3 | 7.8 | 0.00 | 0.00 | 0.00 | 79 | 1016.7 |
| 20260506173538 | 65 | 256 | 4.3 | 6.1 | 0.00 | 0.00 | 0.00 | 80 | 1016.6 |
| 20260506171538 | 64 | 257 | 2.6 | 5.2 | 0.00 | 0.00 | 0.00 | 80 | 1016.8 |
| 20260506170538 | 64 | 260 | 3.5 | 4.3 | 0.00 | 0.00 | 0.00 | 79 | 1016.8 |
| 20260506165538 | 64 | 250 | 3.5 | 4.3 | 0.00 | 0.00 | 0.00 | 80 | 1016.8 |
| 20260506164538 | 64 | 257 | 2.6 | 4.3 | 0.00 | 0.00 | 0.00 | 80 | 1016.9 |
| 20260506163538 | 63 | 265 | 2.6 | 3.5 | 0.00 | 0.00 | 0.00 | 81 | 1016.9 |
| 20260506161538 | 62 | 328 | 1.7 | 3.5 | 0.00 | 0.01 | 0.00 | 84 | 1016.8 |
| 20260506155538 | 60 | 78 | 1.7 | 5.2 | 0.00 | 0.01 | 0.00 | 86 | 1016.7 |
| 20260506154538 | 59 | 49 | 1.7 | 5.2 | 0.00 | 0.01 | 0.00 | 87 | 1016.7 |
| 20260506153538 | 59 | 69 | 3.5 | 5.2 | 0.00 | 0.01 | 0.00 | 88 | 1016.6 |
| 20260506152538 | 58 | 90 | 1.7 | 7.0 | 0.00 | 0.01 | 0.00 | 88 | 1016.7 |
| 20260506151538 | 57 | 82 | 2.6 | 7.0 | 0.00 | 0.01 | 0.00 | 88 | 1016.7 |
| 20260506145538 | 56 | 77 | 3.5 | 7.8 | 0.00 | 0.01 | 0.00 | 89 | 1016.7 |
| 20260506144538 | 55 | 72 | 3.5 | 7.8 | 0.00 | 0.01 | 0.00 | 89 | 1016.7 |
| 20260506143538 | 55 | 61 | 3.5 | 7.8 | 0.00 | 0.01 | 0.00 | 89 | 1016.7 |
| 20260506142538 | 54 | 90 | 2.6 | 7.8 | 0.00 | 0.01 | 0.00 | 89 | 1016.6 |
| 20260506141538 | 54 | 90 | 2.6 | 7.0 | 0.00 | 0.01 | 0.00 | 89 | 1016.5 |